Location: Unspecified
(0.0000°N, 0.0000°E)
Time: 15:08:30
(UTC+00:00)

O/OREOS (USA 219) - Pass Details

Date: 16 December 2019
Orbit: 621 x 646 km, 72.0° (Epoch: 22 May)

Event Time Altitude Azimuth Distance (km) Brightness Sun altitude
Rises 18:34:00 0° 169° (S) 2,922 ? -8.8°
Reaches altitude 10° 18:36:45 10° 153° (SSE) 2,017 ? -9.4°
Maximum altitude 18:40:07 21° 104° (ESE) 1,448 ? -10.2°
Enters shadow 18:42:26 14° 67° (ENE) 1,745 ? -10.7°
